• In Hungary
  • List of Countries
  • For 7 days
  • Water Temperature
  • Satellite Maps
  • Weather Map
  • News
  • Weather Widgets
  • user-avatar
    Login

    Hourly Weather Puerto Ayacucho

    Today, 23 May, Wednesday

    Time Temperature Precipitation Wind Pressure Humidity
    00:00 +26°C° 0.7 mm 1 mps 753 mmHg 91%
    01:00 +26°C° 0 mm 1 mps 753 mmHg 90%
    02:00 +26°C° 0.7 mm 1 mps 753 mmHg 91%
    03:00 +26°C° 0.7 mm 1 mps 753 mmHg 91%
    04:00 +26°C° 0.7 mm 1 mps 753 mmHg 92%
    05:00 +26°C° 0.7 mm 1 mps 753 mmHg 91%
    06:00 +26°C° 0.7 mm 1 mps 754 mmHg 90%
    07:00 +27°C° 0 mm 1 mps 754 mmHg 89%
    08:00 +28°C° 0.2 mm 1 mps 754 mmHg 84%
    09:00 +29°C° 0.2 mm 1 mps 754 mmHg 78%
    10:00 +30°C° 0.2 mm 1 mps 754 mmHg 73%
    11:00 +31°C° 0.2 mm 1 mps 753 mmHg 70%
    12:00 +32°C° 0.2 mm 1 mps 753 mmHg 67%
    13:00 +34°C° 0.2 mm 2 mps 753 mmHg 64%
    14:00 +32°C° 0.4 mm 1 mps 752 mmHg 67%
    15:00 +32°C° 0.4 mm 1 mps 752 mmHg 70%
    16:00 +32°C° 0.4 mm 1 mps 752 mmHg 72%
    17:00 +31°C° 0.8 mm 1 mps 752 mmHg 76%
    18:00 +30°C° 0.8 mm 1 mps 752 mmHg 79%
    19:00 +28°C° 0.8 mm 1 mps 753 mmHg 83%
    20:00 +28°C° 1.2 mm 1 mps 753 mmHg 84%
    21:00 +28°C° 1.2 mm 1 mps 754 mmHg 86%
    22:00 +27°C° 1.2 mm 1 mps 754 mmHg 88%
    23:00 +27°C° 2.3 mm 1 mps 754 mmHg 89%

    Tomorrow, 24 May, Thursday

    Time Temperature Precipitation Wind Pressure Humidity
    00:00 +27°C° 2.3 mm 1 mps 754 mmHg 90%
    01:00 +27°C° 2.3 mm 1 mps 753 mmHg 91%
    02:00 +26°C° 1 mm 1 mps 753 mmHg 91%
    03:00 +26°C° 1 mm 2 mps 753 mmHg 92%
    04:00 +26°C° 1 mm 2 mps 753 mmHg 92%
    05:00 +27°C° 0.8 mm 1 mps 753 mmHg 90%
    06:00 +27°C° 0.8 mm 1 mps 754 mmHg 89%
    07:00 +28°C° 0.8 mm 1 mps 754 mmHg 88%
    08:00 +28°C° 1.6 mm 1 mps 754 mmHg 87%
    09:00 +29°C° 1.6 mm 2 mps 754 mmHg 86%
    10:00 +29°C° 1.6 mm 2 mps 754 mmHg 85%
    11:00 +29°C° 1.4 mm 2 mps 754 mmHg 84%
    12:00 +30°C° 1.4 mm 2 mps 753 mmHg 83%
    13:00 +30°C° 1.4 mm 2 mps 753 mmHg 81%
    14:00 +30°C° 0.8 mm 2 mps 752 mmHg 81%
    15:00 +30°C° 0.8 mm 2 mps 752 mmHg 82%
    16:00 +30°C° 0.8 mm 1 mps 751 mmHg 82%
    17:00 +29°C° 0.4 mm 1 mps 752 mmHg 84%
    18:00 +28°C° 0.4 mm 1 mps 752 mmHg 87%
    19:00 +28°C° 0.4 mm 1 mps 753 mmHg 89%
    20:00 +27°C° 0.7 mm 1 mps 753 mmHg 90%
    21:00 +27°C° 0.7 mm 1 mps 754 mmHg 91%
    22:00 +27°C° 0.7 mm 1 mps 754 mmHg 92%
    23:00 +27°C° 1.2 mm 1 mps 754 mmHg 92%

    Day after tomorrow, 25 May, Friday

    Time Temperature Precipitation Wind Pressure Humidity
    00:00 +26°C° 1.2 mm 1 mps 753 mmHg 93%
    01:00 +26°C° 1.2 mm 1 mps 753 mmHg 93%
    02:00 +26°C° 0.6 mm 1 mps 753 mmHg 93%
    03:00 +26°C° 0.6 mm 1 mps 753 mmHg 93%
    04:00 +26°C° 0.6 mm 1 mps 752 mmHg 93%
    05:00 +26°C° 1.3 mm 1 mps 753 mmHg 93%
    06:00 +26°C° 1.3 mm 1 mps 753 mmHg 93%
    07:00 +26°C° 1.3 mm 1 mps 754 mmHg 92%
    08:00 +26°C° 1.9 mm 1 mps 754 mmHg 92%
    09:00 +27°C° 1.9 mm 1 mps 754 mmHg 91%
    10:00 +27°C° 1.9 mm 1 mps 754 mmHg 90%
    11:00 +28°C° 0.4 mm 1 mps 753 mmHg 88%
    12:00 +28°C° 0.4 mm 1 mps 753 mmHg 86%
    13:00 +28°C° 0.4 mm 1 mps 752 mmHg 84%
    14:00 +29°C° 0.1 mm 1 mps 751 mmHg 82%
    15:00 +29°C° 0.1 mm 1 mps 751 mmHg 80%
    16:00 +29°C° 0.1 mm 2 mps 751 mmHg 78%
    17:00 +29°C° 0.6 mm 1 mps 751 mmHg 82%
    18:00 +28°C° 0.6 mm 1 mps 752 mmHg 87%
    19:00 +27°C° 0.6 mm 1 mps 752 mmHg 92%
    20:00 +27°C° 0.5 mm 1 mps 753 mmHg 92%
    21:00 +25°C° 0.5 mm 0 mps 753 mmHg 93%
    22:00 +24°C° 0.5 mm 0 mps 753 mmHg 93%
    23:00 +24°C° 0.5 mm 0 mps 753 mmHg 94%

    26 May, Saturday

    Time Temperature Precipitation Wind Pressure Humidity
    00:00 +24°C° 0.5 mm 0 mps 753 mmHg 94%
    01:00 +24°C° 0.5 mm 0 mps 752 mmHg 95%
    02:00 +24°C° 0.8 mm 0 mps 752 mmHg 95%
    03:00 +24°C° 0.8 mm 0 mps 752 mmHg 95%
    04:00 +26°C° 0.8 mm 1 mps 752 mmHg 95%
    05:00 +26°C° 1.4 mm 1 mps 753 mmHg 95%
    06:00 +26°C° 1.4 mm 1 mps 753 mmHg 94%
    07:00 +26°C° 1.4 mm 1 mps 754 mmHg 94%
    08:00 +26°C° 0.6 mm 1 mps 754 mmHg 92%
    09:00 +27°C° 0.6 mm 1 mps 754 mmHg 90%
    10:00 +28°C° 0.6 mm 1 mps 754 mmHg 88%
    11:00 +28°C° 0.4 mm 1 mps 753 mmHg 87%
    12:00 +28°C° 0.4 mm 1 mps 753 mmHg 86%
    13:00 +29°C° 0.4 mm 1 mps 752 mmHg 85%
    14:00 +28°C° 0.3 mm 2 mps 752 mmHg 86%
    15:00 +28°C° 0.3 mm 2 mps 751 mmHg 87%
    16:00 +28°C° 0.3 mm 2 mps 751 mmHg 89%
    17:00 +27°C° 0.1 mm 1 mps 751 mmHg 90%
    18:00 +27°C° 0.1 mm 1 mps 752 mmHg 92%
    19:00 +26°C° 0.1 mm 1 mps 752 mmHg 94%
    20:00 +24°C° 0.3 mm 0 mps 753 mmHg 94%
    21:00 +24°C° 0.3 mm 0 mps 753 mmHg 94%
    22:00 +24°C° 0.3 mm 0 mps 753 mmHg 94%
    23:00 +24°C° 0.5 mm 0 mps 753 mmHg 95%

    27 May, Sunday

    Time Temperature Precipitation Wind Pressure Humidity
    00:00 +24°C° 0.5 mm 0 mps 753 mmHg 95%
    01:00 +24°C° 0.5 mm 0 mps 752 mmHg 95%
    02:00 +24°C° 0.9 mm 0 mps 752 mmHg 95%
    03:00 +24°C° 0.9 mm 0 mps 752 mmHg 95%
    04:00 +26°C° 0.9 mm 1 mps 752 mmHg 95%
    05:00 +24°C° 1 mm 0 mps 752 mmHg 95%
    06:00 +24°C° 1 mm 0 mps 753 mmHg 95%
    07:00 +24°C° 1 mm 0 mps 754 mmHg 94%
    08:00 +24°C° 0.9 mm 0 mps 754 mmHg 93%
    09:00 +24°C° 0.9 mm 0 mps 754 mmHg 93%
    10:00 +25°C° 0.9 mm 0 mps 754 mmHg 92%
    11:00 +25°C° 0.7 mm 0 mps 753 mmHg 91%
    12:00 +25°C° 0.7 mm 0 mps 753 mmHg 90%
    13:00 +25°C° 0.7 mm 0 mps 752 mmHg 89%
    14:00 +26°C° 0.2 mm 0 mps 751 mmHg 88%
    15:00 +26°C° 0.2 mm 0 mps 751 mmHg 86%
    16:00 +26°C° 0.2 mm 0 mps 750 mmHg 85%
    17:00 +26°C° 0.1 mm 0 mps 751 mmHg 87%
    18:00 +27°C° 0.1 mm 1 mps 752 mmHg 89%
    19:00 +27°C° 0.1 mm 1 mps 752 mmHg 91%
    20:00 +27°C° 0.1 mm 1 mps 753 mmHg 91%
    21:00 +27°C° 0.1 mm 1 mps 753 mmHg 92%
    22:00 +26°C° 0.1 mm 1 mps 754 mmHg 92%
    23:00 +26°C° 0.2 mm 1 mps 753 mmHg 92%

    28 May, Monday

    Time Temperature Precipitation Wind Pressure Humidity
    00:00 +26°C° 0.2 mm 1 mps 753 mmHg 93%
    01:00 +26°C° 0.2 mm 1 mps 752 mmHg 93%
    02:00 +26°C° 0.3 mm 1 mps 752 mmHg 93%
    03:00 +26°C° 0.3 mm 1 mps 752 mmHg 93%
    04:00 +26°C° 0.3 mm 1 mps 752 mmHg 93%
    05:00 +26°C° 1.2 mm 1 mps 753 mmHg 92%
    06:00 +26°C° 1.2 mm 1 mps 753 mmHg 91%
    07:00 +26°C° 1.2 mm 1 mps 754 mmHg 90%
    08:00 +27°C° 0.6 mm 1 mps 754 mmHg 89%
    09:00 +28°C° 0.6 mm 1 mps 754 mmHg 87%
    10:00 +28°C° 0.6 mm 1 mps 754 mmHg 86%
    11:00 +29°C° 0.3 mm 2 mps 753 mmHg 84%
    12:00 +29°C° 0.3 mm 2 mps 753 mmHg 82%
    13:00 +30°C° 0.3 mm 2 mps 752 mmHg 80%
    14:00 +29°C° 0.2 mm 2 mps 752 mmHg 82%
    15:00 +29°C° 0.2 mm 2 mps 751 mmHg 84%
    16:00 +28°C° 0.2 mm 2 mps 751 mmHg 86%
    17:00 +28°C° 0.2 mm 1 mps 752 mmHg 88%
    18:00 +27°C° 0.2 mm 1 mps 752 mmHg 90%
    19:00 +27°C° 0.2 mm 1 mps 753 mmHg 92%
    20:00 +27°C° 0.5 mm 1 mps 753 mmHg 92%
    21:00 +26°C° 0.5 mm 1 mps 754 mmHg 93%
    22:00 +26°C° 0.5 mm 1 mps 754 mmHg 93%
    23:00 +26°C° 0.3 mm 1 mps 754 mmHg 94%
    Show more